This is the latest recevied weather packets stored in our database for station/object SV9TNF-57. If no packets are shown the sender has not sent any weather packets the latest 10 day(s).
| Time | Temp. | Humidity | Pressure | Rain* | Wind** | Luminosity | Snow |
|---|---|---|---|---|---|---|---|
| 1788422648 | 31.11° C | 37% | 992.9 hPa | 0 mm | 4.02 m/s, 290° | - | - |
| 1788422347 | 31.11° C | 37% | 993.3 hPa | 0 mm | 8.05 m/s, 331° | - | - |
| 1788422047 | 31.11° C | 38% | 993 hPa | 0 mm | 8.49 m/s, 86° | - | - |
| 1788421752 | 30.56° C | 37% | 993.1 hPa | 0 mm | 12.96 m/s, 282° | - | - |
| 1788421447 | 30.56° C | 37% | 993.1 hPa | 0 mm | 4.92 m/s, 289° | - | - |
| 1788421147 | 31.11° C | 36% | 993.3 hPa | 0 mm | 8.05 m/s, 305° | - | - |
| 1788420847 | 31.11° C | 35% | 993 hPa | 0 mm | 8.94 m/s, 291° | - | - |
| 1788420547 | 31.11° C | 35% | 993.3 hPa | 0 mm | 5.36 m/s, 252° | - | - |
| 1788420247 | 31.11° C | 35% | 993.2 hPa | 0 mm | 12.52 m/s, 313° | - | - |
| 1788419946 | 31.11° C | 34% | 993.3 hPa | 0 mm | 2.68 m/s, 219° | - | - |
| 1788419646 | 31.11° C | 35% | 993.2 hPa | 0 mm | 8.49 m/s, 280° | - | - |
| 1788419346 | 31.67° C | 34% | 993.5 hPa | 0 mm | 3.13 m/s, 311° | - | - |
| 1788419046 | 31.11° C | 35% | 993.4 hPa | 0 mm | 3.13 m/s, 304° | - | - |
| 1788418746 | 31.11° C | 35% | 993.1 hPa | 0 mm | 2.68 m/s, 359° | - | - |
| 1788418446 | 30.56° C | 35% | 993.2 hPa | 0 mm | 6.26 m/s, 14° | - | - |
| 1788418159 | 30.56° C | 35% | 993.1 hPa | 0 mm | 8.05 m/s, 307° | - | - |
| 1788417845 | 30.56° C | 36% | 993.2 hPa | 0 mm | 3.58 m/s, 295° | - | - |
| 1788417546 | 30.56° C | 37% | 993.3 hPa | 0 mm | 10.28 m/s, 295° | - | - |
| 1788417245 | 30.56° C | 36% | 993.4 hPa | 0 mm | 7.15 m/s, 339° | - | - |
| 1788416946 | 30.56° C | 37% | 993.3 hPa | 0 mm | 7.6 m/s, 33° | - | - |
| 1788416645 | 30.56° C | 37% | 993.5 hPa | 0 mm | 7.6 m/s, 5° | - | - |
| 1788416345 | 30.56° C | 37% | 993.2 hPa | 0 mm | 4.92 m/s, 354° | - | - |
| 1788416045 | 30.56° C | 37% | 993.3 hPa | 0 mm | 7.15 m/s, 318° | - | - |
| 1788415745 | 30.56° C | 38% | 993.4 hPa | 0 mm | 5.36 m/s, 300° | - | - |
| 1788415445 | 30° C | 39% | 993.6 hPa | 0 mm | 0 m/s | - | - |
* Rain latest hour (hover to see other rain measurements)
** Current wind speed in m/s (hover to see current wind gust speed)